This is the latest recevied weather packets stored in our database for station/object KC3ULW-13. If no packets are shown the sender has not sent any weather packets the latest 10 day(s).
| Time | Temp. | Humidity | Pressure | Rain* | Wind** | Luminosity | Snow |
|---|---|---|---|---|---|---|---|
| 1777515176 | 11.11° C | 89% | 1012.8 hPa | 0 mm | - | 0 W/m² | - |
| 1777514872 | 11.11° C | 89% | 1012.5 hPa | 0 mm | - | 0 W/m² | - |
| 1777514569 | 11.11° C | 88% | 1013.1 hPa | 0 mm | - | 0 W/m² | - |
| 1777514267 | 11.11° C | 88% | 1012.9 hPa | 0 mm | - | 0 W/m² | - |
| 1777513963 | 11.11° C | 88% | 1012.8 hPa | 0 mm | - | 0 W/m² | - |
| 1777513661 | 11.67° C | 88% | 1012.8 hPa | 0 mm | - | 0 W/m² | - |
| 1777513358 | 11.67° C | 88% | 1012.8 hPa | 0 mm | - | 0 W/m² | - |
| 1777513053 | 11.67° C | 88% | 1012.8 hPa | 0 mm | - | 0 W/m² | - |
| 1777512446 | 11.67° C | 89% | 1012.6 hPa | 0 mm | - | 0 W/m² | - |
| 1777512143 | 11.67° C | 89% | 1012.5 hPa | 0 mm | - | 0 W/m² | - |
| 1777511841 | 11.67° C | 90% | 1012.7 hPa | 0 mm | - | 0 W/m² | - |
| 1777511538 | 11.67° C | 90% | 1012.3 hPa | 0 mm | - | 0 W/m² | - |
| 1777511235 | 11.67° C | 91% | 1012.2 hPa | 0 mm | - | 0 W/m² | - |
| 1777510931 | 11.67° C | 92% | 1012.2 hPa | 0 mm | - | 0 W/m² | - |
| 1777510324 | 12.22° C | 92% | 1012 hPa | 0 mm | - | 0 W/m² | - |
| 1777509110 | 12.22° C | 92% | 1011.3 hPa | 0 mm | - | 0 W/m² | - |
| 1777508807 | 12.22° C | 92% | 1011.1 hPa | 0 mm | - | 0 W/m² | - |
| 1777507292 | 12.78° C | 92% | 1010.7 hPa | 0 mm | - | 0 W/m² | - |
| 1777505168 | 13.89° C | 91% | 1010.4 hPa | 1.27 mm | - | 13 W/m² | - |
| 1777500621 | 15° C | 87% | 1009.5 hPa | 0 mm | - | 54 W/m² | - |
| 1777500014 | 15° C | 88% | 1009.2 hPa | 0 mm | - | 79 W/m² | - |
| 1777496981 | 15.56° C | 88% | 1008.8 hPa | 0 mm | - | 143 W/m² | - |
| 1777494857 | 15.56° C | 89% | 1008.7 hPa | 0 mm | - | 130 W/m² | - |
| 1777494251 | 15.56° C | 89% | 1008.7 hPa | 1.27 mm | - | 171 W/m² | - |
| 1777493948 | 15.56° C | 90% | 1008.7 hPa | 0 mm | - | 162 W/m² | - |
* Rain latest hour (hover to see other rain measurements)
** Current wind speed in m/s (hover to see current wind gust speed)